• In Österreich
  • Länderverzeichnis
  • Für 7 Tage
  • Wassertemperatur
  • Satellitenkarten
  • Wetterkarte
  • News
  • Widgets
  • user-avatar
    Anmelden

    Stündliche Wetter Baltschik

    Heute, 21 August, Dienstag

    Zeit Temperatur Niederschläge Wind Luftdruck Luftfeuchtigkeit
    00:00 +19°C° 0 mm 2 m/S 738 mmHg 64%
    01:00 +19°C° 0 mm 2 m/S 738 mmHg 66%
    02:00 +18°C° 0 mm 2 m/S 738 mmHg 68%
    03:00 +18°C° 0 mm 2 m/S 738 mmHg 69%
    04:00 +18°C° 0 mm 2 m/S 738 mmHg 69%
    05:00 +18°C° 0 mm 3 m/S 738 mmHg 70%
    06:00 +19°C° 0 mm 3 m/S 739 mmHg 64%
    07:00 +21°C° 0 mm 3 m/S 739 mmHg 58%
    08:00 +25°C° 0 mm 3 m/S 739 mmHg 50%
    09:00 +26°C° 0 mm 4 m/S 739 mmHg 45%
    10:00 +28°C° 0 mm 4 m/S 740 mmHg 39%
    11:00 +29°C° 0 mm 5 m/S 740 mmHg 34%
    12:00 +30°C° 0 mm 5 m/S 740 mmHg 33%
    13:00 +30°C° 0 mm 5 m/S 739 mmHg 31%
    14:00 +32°C° 0 mm 5 m/S 739 mmHg 30%
    15:00 +30°C° 0 mm 5 m/S 739 mmHg 31%
    16:00 +30°C° 0 mm 5 m/S 739 mmHg 32%
    17:00 +29°C° 0 mm 4 m/S 739 mmHg 33%
    18:00 +27°C° 0 mm 4 m/S 739 mmHg 39%
    19:00 +25°C° 0 mm 3 m/S 739 mmHg 45%
    20:00 +23°C° 0 mm 2 m/S 739 mmHg 51%
    21:00 +21°C° 0 mm 2 m/S 739 mmHg 52%
    22:00 +21°C° 0 mm 1 m/S 739 mmHg 53%
    23:00 +21°C° 0 mm 1 m/S 739 mmHg 54%

    Morgen, 22 August, Mittwoch

    Zeit Temperatur Niederschläge Wind Luftdruck Luftfeuchtigkeit
    00:00 +21°C° 0 mm 1 m/S 739 mmHg 52%
    01:00 +21°C° 0 mm 1 m/S 739 mmHg 51%
    02:00 +21°C° 0 mm 1 m/S 739 mmHg 49%
    03:00 +19°C° 0 mm 2 m/S 739 mmHg 48%
    04:00 +19°C° 0 mm 2 m/S 739 mmHg 47%
    05:00 +19°C° 0 mm 2 m/S 739 mmHg 46%
    06:00 +21°C° 0 mm 2 m/S 740 mmHg 44%
    07:00 +24°C° 0 mm 3 m/S 740 mmHg 42%
    08:00 +25°C° 0 mm 3 m/S 740 mmHg 40%
    09:00 +27°C° 0 mm 3 m/S 740 mmHg 37%
    10:00 +29°C° 0 mm 3 m/S 741 mmHg 33%
    11:00 +32°C° 0 mm 4 m/S 741 mmHg 30%
    12:00 +33°C° 0 mm 4 m/S 741 mmHg 29%
    13:00 +33°C° 0 mm 4 m/S 741 mmHg 28%
    14:00 +33°C° 0 mm 4 m/S 740 mmHg 27%
    15:00 +33°C° 0 mm 4 m/S 740 mmHg 29%
    16:00 +32°C° 0 mm 4 m/S 740 mmHg 30%
    17:00 +32°C° 0 mm 4 m/S 740 mmHg 32%
    18:00 +29°C° 0 mm 3 m/S 740 mmHg 39%
    19:00 +26°C° 0 mm 3 m/S 740 mmHg 46%
    20:00 +24°C° 0 mm 2 m/S 740 mmHg 53%
    21:00 +24°C° 0 mm 2 m/S 740 mmHg 58%
    22:00 +23°C° 0 mm 2 m/S 740 mmHg 62%
    23:00 +23°C° 0 mm 2 m/S 740 mmHg 66%

    übermorgen, 23 August, Donnerstag

    Zeit Temperatur Niederschläge Wind Luftdruck Luftfeuchtigkeit
    00:00 +21°C° 0 mm 2 m/S 740 mmHg 69%
    01:00 +21°C° 0 mm 2 m/S 740 mmHg 72%
    02:00 +21°C° 0 mm 3 m/S 740 mmHg 75%
    03:00 +21°C° 0 mm 3 m/S 740 mmHg 78%
    04:00 +20°C° 0 mm 3 m/S 740 mmHg 80%
    05:00 +20°C° 0 mm 3 m/S 740 mmHg 82%
    06:00 +22°C° 0 mm 4 m/S 740 mmHg 75%
    07:00 +25°C° 0 mm 5 m/S 740 mmHg 68%
    08:00 +26°C° 0 mm 5 m/S 740 mmHg 61%
    09:00 +28°C° 0 mm 6 m/S 740 mmHg 54%
    10:00 +29°C° 0 mm 6 m/S 740 mmHg 48%
    11:00 +30°C° 0 mm 6 m/S 740 mmHg 41%
    12:00 +32°C° 0 mm 6 m/S 740 mmHg 41%
    13:00 +32°C° 0 mm 7 m/S 740 mmHg 40%
    14:00 +32°C° 0 mm 7 m/S 740 mmHg 39%
    15:00 +30°C° 0 mm 7 m/S 739 mmHg 42%
    16:00 +29°C° 0 mm 6 m/S 739 mmHg 45%
    17:00 +29°C° 0 mm 6 m/S 739 mmHg 47%
    18:00 +27°C° 0 mm 5 m/S 739 mmHg 56%
    19:00 +25°C° 0 mm 5 m/S 739 mmHg 64%
    20:00 +22°C° 0 mm 4 m/S 739 mmHg 73%
    21:00 +21°C° 0 mm 3 m/S 739 mmHg 77%
    22:00 +21°C° 0 mm 3 m/S 739 mmHg 81%
    23:00 +20°C° 0 mm 3 m/S 739 mmHg 86%

    24 August, Freitag

    Zeit Temperatur Niederschläge Wind Luftdruck Luftfeuchtigkeit
    00:00 +20°C° 0 mm 3 m/S 739 mmHg 86%
    01:00 +19°C° 0 mm 2 m/S 738 mmHg 87%
    02:00 +19°C° 0 mm 2 m/S 738 mmHg 88%
    03:00 +19°C° 0 mm 2 m/S 738 mmHg 88%
    04:00 +19°C° 0 mm 3 m/S 738 mmHg 88%
    05:00 +18°C° 0 mm 3 m/S 738 mmHg 88%
    06:00 +20°C° 0 mm 3 m/S 738 mmHg 81%
    07:00 +21°C° 0 mm 3 m/S 738 mmHg 74%
    08:00 +24°C° 0 mm 3 m/S 738 mmHg 67%
    09:00 +26°C° 0 mm 3 m/S 738 mmHg 60%
    10:00 +28°C° 0 mm 4 m/S 738 mmHg 53%
    11:00 +30°C° 0 mm 4 m/S 738 mmHg 46%
    12:00 +30°C° 0 mm 4 m/S 738 mmHg 45%
    13:00 +30°C° 0 mm 4 m/S 737 mmHg 44%
    14:00 +30°C° 0 mm 4 m/S 737 mmHg 44%
    15:00 +30°C° 0 mm 4 m/S 737 mmHg 45%
    16:00 +30°C° 0 mm 4 m/S 736 mmHg 47%
    17:00 +29°C° 0 mm 5 m/S 736 mmHg 48%
    18:00 +27°C° 0 mm 4 m/S 736 mmHg 57%
    19:00 +25°C° 0 mm 3 m/S 736 mmHg 65%
    20:00 +22°C° 0 mm 3 m/S 736 mmHg 74%
    21:00 +21°C° 0 mm 2 m/S 736 mmHg 78%
    22:00 +21°C° 0 mm 2 m/S 736 mmHg 81%
    23:00 +20°C° 0 mm 2 m/S 736 mmHg 85%

    25 August, Samstag

    Zeit Temperatur Niederschläge Wind Luftdruck Luftfeuchtigkeit
    00:00 +21°C° 0 mm 1 m/S 736 mmHg 85%
    01:00 +20°C° 0 mm 1 m/S 735 mmHg 85%
    02:00 +20°C° 0 mm 1 m/S 735 mmHg 85%
    03:00 +20°C° 0 mm 1 m/S 735 mmHg 84%
    04:00 +20°C° 0 mm 1 m/S 735 mmHg 84%
    05:00 +19°C° 0 mm 2 m/S 735 mmHg 83%
    06:00 +20°C° 0 mm 2 m/S 735 mmHg 76%
    07:00 +23°C° 0 mm 2 m/S 735 mmHg 69%
    08:00 +25°C° 0 mm 2 m/S 736 mmHg 61%
    09:00 +26°C° 0 mm 2 m/S 736 mmHg 54%
    10:00 +28°C° 0 mm 2 m/S 736 mmHg 46%
    11:00 +30°C° 0 mm 2 m/S 736 mmHg 38%
    12:00 +31°C° 0 mm 2 m/S 735 mmHg 36%
    13:00 +32°C° 0 mm 2 m/S 735 mmHg 34%
    14:00 +34°C° 0 mm 2 m/S 734 mmHg 33%
    15:00 +32°C° 0 mm 2 m/S 734 mmHg 34%
    16:00 +31°C° 0 mm 3 m/S 734 mmHg 36%
    17:00 +31°C° 0 mm 3 m/S 733 mmHg 38%
    18:00 +29°C° 0 mm 3 m/S 733 mmHg 47%
    19:00 +26°C° 0 mm 3 m/S 733 mmHg 55%
    20:00 +24°C° 0 mm 3 m/S 734 mmHg 63%
    21:00 +24°C° 0 mm 2 m/S 733 mmHg 64%
    22:00 +23°C° 0 mm 2 m/S 733 mmHg 65%
    23:00 +23°C° 0 mm 1 m/S 733 mmHg 66%

    26 August, Sonntag

    Zeit Temperatur Niederschläge Wind Luftdruck Luftfeuchtigkeit
    00:00 +22°C° 0 mm 1 m/S 733 mmHg 65%
    01:00 +22°C° 0 mm 1 m/S 733 mmHg 65%
    02:00 +22°C° 0 mm 1 m/S 733 mmHg 64%
    03:00 +21°C° 0 mm 1 m/S 733 mmHg 64%
    04:00 +21°C° 0 mm 1 m/S 733 mmHg 64%
    05:00 +21°C° 0 mm 1 m/S 733 mmHg 64%
    06:00 +23°C° 0 mm 1 m/S 733 mmHg 58%
    07:00 +25°C° 0 mm 1 m/S 734 mmHg 53%
    08:00 +26°C° 0 mm 1 m/S 734 mmHg 47%
    09:00 +28°C° 0 mm 2 m/S 734 mmHg 43%
    10:00 +30°C° 0 mm 2 m/S 734 mmHg 38%
    11:00 +31°C° 0 mm 2 m/S 734 mmHg 34%
    12:00 +33°C° 0 mm 3 m/S 733 mmHg 33%
    13:00 +33°C° 0 mm 3 m/S 733 mmHg 32%
    14:00 +34°C° 0 mm 3 m/S 733 mmHg 31%
    15:00 +33°C° 0 mm 3 m/S 733 mmHg 35%
    16:00 +32°C° 0 mm 4 m/S 732 mmHg 38%
    17:00 +32°C° 0 mm 4 m/S 732 mmHg 41%
    18:00 +28°C° 0 mm 4 m/S 732 mmHg 50%
    19:00 +26°C° 0 mm 3 m/S 732 mmHg 59%
    20:00 +24°C° 0 mm 3 m/S 732 mmHg 68%
    21:00 +24°C° 0 mm 3 m/S 732 mmHg 72%
    22:00 +22°C° 0 mm 3 m/S 732 mmHg 76%
    23:00 +21°C° 0 mm 2 m/S 732 mmHg 80%
    Mehr zeigen